Simultaneous Nadir Overpasses (SNOs) Predictions

Prediction of SNOs between LANDSAT-8 and NOAA-19 Satellite Orbit:

Table of predicted SNOs for the next 14.0 days since TLE Epoch: 7/23/2016
Index Date (LANDSAT-8) Time (LANDSAT-8) Lat,Lon (LANDSAT-8) SZA (LANDSAT-8 ) Date (NOAA-19) Time (NOAA-19) Lat,Lon (NOAA-19) SZA (NOAA-19 ) Distance(km) Time Diff (sec)
1 07/23/2016 14:15:41 74.87, -28.74 54.92 07/23/2016 14:15:18 74.85, -28.67 54.90 3.04 23
2 07/23/2016 15:05:10 -74.79, 138.70 125.16 07/23/2016 15:06:14 -74.81, 138.69 125.13 2.60 64
3 07/25/2016 19:49:26 -74.89, 67.89 124.58 07/25/2016 19:49:17 -74.88, 67.78 124.59 3.62 9
4 07/25/2016 20:39:03 74.31,-125.91 54.82 07/25/2016 20:40:09 74.28,-123.28 54.85 79.26 66
5 07/28/2016 00:33:37 -75.24, -2.25 123.71 07/28/2016 00:32:28 -75.32, -4.28 123.67 58.26 69
6 07/28/2016 01:23:10 74.87, 164.40 55.90 07/28/2016 01:23:22 74.85, 164.40 55.89 1.83 12
7 07/30/2016 06:07:27 74.91, 93.44 56.48 07/30/2016 06:06:24 74.91, 93.52 56.47 2.41 63
8 07/30/2016 06:56:56 -74.84, -99.10 123.59 07/30/2016 06:57:21 -74.84, -99.03 123.59 2.08 25
9 08/01/2016 11:41:12 -74.94,-169.92 122.94 08/01/2016 11:40:24 -74.92,-169.96 122.96 2.21 48
10 08/01/2016 12:30:39 74.86, -2.49 56.98 08/01/2016 12:31:25 74.83, -2.45 56.96 3.40 46
11 08/03/2016 17:14:56 74.89, -73.46 57.60 08/03/2016 17:14:27 74.89, -73.34 57.60 3.46 29
12 08/03/2016 18:04:25 -74.83, 94.01 122.46 08/03/2016 18:05:26 -74.86, 94.00 122.43 3.53 61
13 08/05/2016 22:48:41 -74.92, 23.16 121.78 08/05/2016 22:48:28 -74.90, 23.17 121.79 1.90 13




NCC Satellite Simultaneous Nadir Overpasses (SNOs) Prediction Service
